"Pseudo-MPEC" for P11djL1

Created 2021 Mar 4 16:07:11 UT using Find_Orb

Click here for an explanation of pseudo-MPECs

 
 Astrometry: 
     P11djL1  C2021 02 13OYJuXd`QEoU2.BgPd8BAstrometryX^v;M2A):\dredacted;DoiF51
     P11djL1  C2021 02 13?'SYXx)3d7U+gclickshereCdQ\:GbgY^pNt5ri$kK1$)c-=MEL2F51
     P11djL1  C2021 02 13fFV*wlDxT12forl\`@explanationqXdO#5`'#55P4bTbL_9)8soF51

Station data:
(F51) Pan-STARRS 1, Haleakala  (N20.707235 W156.255910)  US/Hawaii.
   Observers N. Primak, A. Schultz, S. Watters, J. Thiel, T. Goggia. Measurer
   PS1 Science Consortium. 1.8-m Ritchey-Chrétien + CCD.

Orbital elements:  P11djL1
   Perihelion 2021 Feb 14.663875 +/- 35.355 TT = 15:55:58 (JD 2459260.163875)
Epoch 2021 Feb 13.0 TT = JDT 2459258.5   Earth MOID: 0.2837   Ju: 0.4863
M 359.67176434 +/- 27.677496        (J2000 ecliptic)          AutoNEOCP
n   0.19727178 +/- 0.291441         Peri.  356.55760 +/- 67.050235
a   2.92253285 +/- 2.90615          Node   141.17800 +/- 51.187392
e   0.5654655 +/- 0.25333           Incl.   11.74462 +/- 6.5060383
P   5.00                   H 22.5   G  0.15   U 11.9  SR
q 1.26994108 +/- 0.41332    Q 4.57512462 +/- 37.6958
From 3 observations 2021 Feb. 13 (58.8 min); mean residual 0".21
Residuals in arcseconds: 
210213 F51  .00   .14+    210213 F51  .01-  .42-    210213 F51  .01+  .28+    

Ephemerides (geocentric):
Date (UTC) HH   RA              Dec         delta   r     elong  mag " sig PA
---- -- -- --  -------------   -----------  ------ ------ -----  --- ---- ---
2021 03 04 16  08 22 42.520   +28 02 46.12  .37049 1.2866 136.7 22.3  32d  10
2021 03 04 17  08 22 50.168   +28 03 40.45  .37065 1.2867 136.7 22.3  32d  10
2021 03 04 18  08 22 57.820   +28 04 34.66  .37081 1.2867 136.6 22.3  32d  10
2021 03 04 19  08 23 05.474   +28 05 28.75  .37097 1.2868 136.6 22.3  32d  10
2021 03 04 20  08 23 13.131   +28 06 22.73  .37113 1.2869 136.6 22.3  32d  10
2021 03 04 21  08 23 20.791   +28 07 16.59  .37129 1.2870 136.6 22.3  32d  10
2021 03 04 22  08 23 28.454   +28 08 10.34  .37145 1.2870 136.6 22.3  32d  10
2021 03 04 23  08 23 36.120   +28 09 03.98  .37162 1.2871 136.5 22.3  32d  10
2021 03 05 00  08 23 43.789   +28 09 57.50  .37178 1.2872 136.5 22.3  32d  10
2021 03 05 01  08 23 51.460   +28 10 50.90  .37194 1.2873 136.5 22.3  32d  10
2021 03 05 02  08 23 59.135   +28 11 44.19  .37210 1.2873 136.5 22.3  32d  10
2021 03 05 03  08 24 06.812   +28 12 37.36  .37227 1.2874 136.5 22.3  32d  10
2021 03 05 04  08 24 14.492   +28 13 30.42  .37243 1.2875 136.4 22.3  32d  10
2021 03 05 05  08 24 22.175   +28 14 23.37  .37259 1.2876 136.4 22.3  32d  10
2021 03 05 06  08 24 29.861   +28 15 16.20  .37276 1.2877 136.4 22.3  32d  10
2021 03 05 07  08 24 37.549   +28 16 08.91  .37292 1.2877 136.4 22.3  32d  10
2021 03 05 08  08 24 45.240   +28 17 01.51  .37308 1.2878 136.4 22.3  32d  10
2021 03 05 09  08 24 52.934   +28 17 53.99  .37325 1.2879 136.3 22.3  32d  10
2021 03 05 10  08 25 00.631   +28 18 46.35  .37341 1.2880 136.3 22.3  32d  10
2021 03 05 11  08 25 08.331   +28 19 38.61  .37358 1.2881 136.3 22.3  32d  10
2021 03 05 12  08 25 16.033   +28 20 30.74  .37374 1.2881 136.3 22.3  32d  10
2021 03 05 13  08 25 23.738   +28 21 22.76  .37391 1.2882 136.2 22.3  32d  10
2021 03 05 14  08 25 31.446   +28 22 14.67  .37407 1.2883 136.2 22.3  32d  10
2021 03 05 15  08 25 39.156   +28 23 06.46  .37424 1.2884 136.2 22.3  32d  10
2021 03 05 16  08 25 46.869   +28 23 58.13  .37440 1.2885 136.2 22.3  32d  10
2021 03 05 17  08 25 54.585   +28 24 49.69  .37457 1.2885 136.2 22.3  32d  10
2021 03 05 18  08 26 02.303   +28 25 41.13  .37474 1.2886 136.1 22.3  32d  10
2021 03 05 19  08 26 10.025   +28 26 32.46  .37490 1.2887 136.1 22.3  32d  10
2021 03 05 20  08 26 17.748   +28 27 23.67  .37507 1.2888 136.1 22.3  32d  10
2021 03 05 21  08 26 25.475   +28 28 14.77  .37524 1.2889 136.1 22.3  32d  10
2021 03 05 22  08 26 33.204   +28 29 05.75  .37541 1.2889 136.1 22.3  32d  10
2021 03 05 23  08 26 40.935   +28 29 56.61  .37557 1.2890 136.0 22.3  32d  10
2021 03 06 00  08 26 48.670   +28 30 47.36  .37574 1.2891 136.0 22.3  32d  10
2021 03 06 01  08 26 56.407   +28 31 38.00  .37591 1.2892 136.0 22.3  32d  10
2021 03 06 02  08 27 04.146   +28 32 28.52  .37608 1.2893 136.0 22.3  32d  10
2021 03 06 03  08 27 11.888   +28 33 18.92  .37625 1.2893 136.0 22.3  32d  10
2021 03 06 04  08 27 19.633   +28 34 09.20  .37641 1.2894 135.9 22.3  33d  10
2021 03 06 05  08 27 27.380   +28 34 59.38  .37658 1.2895 135.9 22.3  33d  10
2021 03 06 06  08 27 35.129   +28 35 49.43  .37675 1.2896 135.9 22.3  33d  10
2021 03 06 07  08 27 42.882   +28 36 39.37  .37692 1.2897 135.9 22.3  33d  10
2021 03 06 08  08 27 50.636   +28 37 29.19  .37709 1.2898 135.9 22.3  33d  10
2021 03 06 09  08 27 58.394   +28 38 18.90  .37726 1.2898 135.8 22.3  33d  10
2021 03 06 10  08 28 06.153   +28 39 08.49  .37743 1.2899 135.8 22.3  33d  10
2021 03 06 11  08 28 13.915   +28 39 57.97  .37760 1.2900 135.8 22.3  33d  10
2021 03 06 12  08 28 21.680   +28 40 47.33  .37777 1.2901 135.8 22.3  33d  10
2021 03 06 13  08 28 29.447   +28 41 36.57  .37794 1.2902 135.8 22.3  33d  10
2021 03 06 14  08 28 37.217   +28 42 25.70  .37811 1.2903 135.7 22.3  33d  10
2021 03 06 15  08 28 44.989   +28 43 14.72  .37828 1.2903 135.7 22.3  33d  10